User: anonymous   Login
Location: Walnut Point State Park
(39.6958°N, 88.0345°W)
Time: 14:35:10
(UTC-06:00)
Language:

ATLAS 3B R/B - Orbit

View from above orbital plane
View from above orbital plane
View from above satellite
View from above satellite

Ground track
Ground track

The orbit data is extracted from the following two-line orbital elements,

1 28538U 05004B   17326.74708250 0.00000000  00000-0  00000-0 0    00
2 28538  63.8208 256.8637 0128000 162.5404 197.4596 13.43104562    05
Epoch (UTC): 22 November 2017 17:55:47
Eccentricity: 0.0128000
inclination: 63.8208°
perigee height: 1002 km
apogee height: 1193 km
right ascension of ascending node: 256.8637°
argument of perigee: 162.5404°
revolutions per day: 13.43104562
mean anomaly at epoch: 197.4596°
orbit number at epoch: 0

The dashed part of the orbit path shows where the satellite is in the earth's shadow,  

DLR